FW1504 Weather Reports


time (UTC)temp
C
wind
direction
speed
KPH
gust
KPH
rain 1hr
cm
rain 24hr
cm
rain mn
cm
humidity
%
barometer
mb
20260503020015 18 360 0.0 3.2 0.00 0.00 0.00 52 1018.5
20260503014517 19 360 0.0 3.2 0.00 0.00 0.00 51 1018.5
20260503013017 20 360 0.0 3.2 0.00 0.00 0.00 49 1018.2
20260503011513 21 360 0.0 4.8 0.00 0.00 0.00 48 1018.1
20260503010013 21 360 0.0 4.8 0.00 0.00 0.00 46 1018.1
20260503004512 21 360 0.0 3.2 0.00 0.00 0.00 44 1018.0
20260503003012 22 360 0.0 4.8 0.00 0.00 0.00 43 1018.1
20260503001512 22 360 1.6 8.0 0.00 0.00 0.00 43 1017.9
20260503000011 22 360 1.6 6.4 0.00 0.00 0.00 42 1017.9
20260502234510 22 360 1.6 6.4 0.00 0.00 0.00 42 1018.0
20260502233010 23 360 1.6 4.8 0.00 0.00 0.00 42 1018.0
20260502231515 23 360 1.6 8.0 0.00 0.00 0.00 42 1018.0
20260502230009 23 360 1.6 6.4 0.00 0.00 0.00 41 1018.1
20260502224505 23 360 0.0 3.2 0.00 0.00 0.00 41 1018.1
20260502223004 23 360 0.0 4.8 0.00 0.00 0.00 41 1018.2
20260502221502 23 360 1.6 8.0 0.00 0.00 0.00 42 1018.2
20260502220001 23 360 1.6 8.0 0.00 0.00 0.00 44 1018.3
20260502214558 22 360 1.6 4.8 0.00 0.00 0.00 42 1018.7
20260502213057 22 360 0.0 8.0 0.00 0.00 0.00 43 1018.8
20260502211557 22 360 1.6 6.4 0.00 0.00 0.00 41 1018.9
20260502210105 22 360 1.6 8.0 0.00 0.00 0.00 42 1019.2
20260502204553 22 360 1.6 8.0 0.00 0.00 0.00 42 1019.2
20260502203053 23 360 0.0 4.8 0.00 0.00 0.00 44 1019.5
20260502201559 23 360 1.6 14.5 0.00 0.00 0.00 43 1019.6
20260502200059 23 360 0.0 4.8 0.00 0.00 0.00 42 1019.5
20260502194550 23 360 0.0 4.8 0.00 0.00 0.00 44 1019.7
20260502193046 22 360 1.6 8.0 0.00 0.00 0.00 43 1019.7
20260502191545 22 360 0.0 4.8 0.00 0.00 0.00 45 1019.9
20260502190052 22 360 0.0 6.4 0.00 0.00 0.00 43 1020.0
20260502184554 22 360 1.6 8.0 0.00 0.00 0.00 47 1020.3
20260502183043 21 360 4.8 9.7 0.00 0.00 0.00 43 1020.6
20260502181542 22 360 1.6 12.9 0.00 0.00 0.00 45 1020.6
20260502180104 21 360 1.6 4.8 0.00 0.00 0.00 45 1020.9
20260502163032 21 360 0.0 6.4 0.00 0.00 0.00 54 1021.6
20260502161529 21 360 1.6 4.8 0.00 0.00 0.00 48 1021.5
20260502151518 20 181 3.2 9.7 0.00 0.00 0.00 50 1021.6
20260502123036 10 74 0.0 1.6 0.00 0.00 0.00 74 1021.3
20260502121533 9 41 0.0 1.6 0.00 0.00 0.00 75 1021.1
20260502114530 10 40 0.0 3.2 0.00 0.00 0.00 75 1021.0
20260502113028 10 40 0.0 1.6 0.00 0.00 0.00 75 1021.0
20260502111527 10 39 0.0 0.0 0.00 0.00 0.00 74 1021.2
20260502110027 10 27 0.0 8.0 0.00 0.00 0.00 76 1021.3
20260502104537 9 33 3.2 8.0 0.00 0.00 0.00 79 1021.2
20260502103020 8 119 0.0 0.0 0.00 0.00 0.00 79 1020.6
20260502101518 8 119 0.0 0.0 0.00 0.00 0.00 78 1020.4
20260502091511 9 119 0.0 0.0 0.00 0.00 0.00 76 1019.6
20260502080108 11 119 0.0 0.0 0.00 0.00 0.00 71 1019.4
20260502070054 11 119 0.0 0.0 0.00 0.00 0.00 68 1019.5
20260502064550 11 119 0.0 0.0 0.00 0.00 0.00 69 1019.6
20260502063051 11 119 0.0 1.6 0.00 0.00 0.00 68 1019.7
20260502061548 12 119 0.0 0.0 0.00 0.00 0.00 66 1019.7
20260502060046 12 119 0.0 1.6 0.00 0.00 0.00 66 1019.6
20260502054547 12 119 1.6 3.2 0.00 0.00 0.00 65 1019.6
20260502053052 12 119 1.6 3.2 0.00 0.00 0.00 65 1019.6
20260502051554 12 119 0.0 3.2 0.00 0.00 0.00 66 1019.6
20260502050049 12 119 0.0 0.0 0.00 0.00 0.00 66 1019.6
20260502044541 13 119 0.0 0.0 0.00 0.00 0.00 65 1019.7
20260502043038 13 360 0.0 0.0 0.00 0.00 0.00 64 1019.6
20260502041539 13 360 0.0 0.0 0.00 0.00 0.00 64 1019.5
20260502040036 14 360 0.0 3.2 0.00 0.00 0.00 61 1019.4
20260502034537 15 360 0.0 3.2 0.00 0.00 0.00 59 1019.3
20260502033039 15 360 0.0 3.2 0.00 0.00 0.00 58 1019.3
20260502031538 15 120 0.0 3.2 0.00 0.00 0.00 57 1019.2
20260502030035 15 360 0.0 3.2 0.00 0.00 0.00 55 1019.1
20260502024536 15 360 0.0 4.8 0.00 0.00 0.00 54 1019.1
20260502023033 16 360 0.0 1.6 0.00 0.00 0.00 54 1019.0
20260502021534 16 360 0.0 1.6 0.00 0.00 0.00 53 1018.8